CZ-3C DEB, 40207

Orbit data source: Space-Track

CZ-3C DEB, 40207 is space debris in HEO originally from a launch on Fri, 24 Feb 2012 UTC launched from the Xichang Space Center, China (XSC). Debris objects in space refer to the collection of defunct objects orbiting the Earth. Examples of debris include non-operational satellites, rocket bodies, and fragments generated from explosions, collisions, or faulty payload assembly.

Loading next visibility...
Identifier
40207, 2012-008S
Orbit
HEO
Country
Flag of CNCN / PRC
Related business
Manufacturer
CALT
Mission
Spacecraft
Bus & Motor
Unknown
Mass
Unknown
Launch date (UTC)
2012-02-24 (14 years ago)
Launch vehicle
Unknown
Launch site
Xichang Space Center, China (XSC)
Object type
Payload
Rocket body
Debris
Shape & HBR
Unknown shape, 0.3 m
Radar Cross Section
Medium (>0.1 m² and <1 m²)

Expand to show TLE details & history
Last TLE update: 2 days ago

TLE from 2 days ago
0 CZ-3C DEB
1 40207U 12008S   26205.32732840 -.00000098  00000-0  29850-3 0  9993
2 40207  19.2349 298.1190 7205225  44.0938 354.4486  2.24302664 96259
Epoch: 2026-07-24T07:51Z
TLE epoch observation values (Epoch: 2026-07-24T07:51:21.173Z)
Latitude
-0.00002°
Longitude
-121.68876°
Altitude
1,427.816 km
Speed
9.271 km/s
True Right ascension
19h 52m 49s
True Declination
0° 00' 00"
Sunlit
Object was in full shadow at epoch
Visualization orbit readout
Latitude
Unknown
Longitude
Unknown
Altitude
Unknown
Speed
Unknown
Apparent Right ascension
Unknown
Apparent Declination
Unknown
Sunlit
N/A
Visualization observer readout
Local Sidereal Time
17:09:58
Azimuth
Unknown
Elevation
Unknown
Doppler factor
Unknown
Orbital elements
Apogee altitude
36,043.283 km
Perigee altitude
512.696 km
Semi-major axis
24,656.127 km
Eccentricity
0.72052
Inclination
19.2349°
RAAN
298.119°
Arg. of periapsis
44.0938°
True anomaly
314.959°
Mean anomaly
354.4486°
Eccentric anomaly
341.02574°
Mean motion
0.5606 °/min
Orbital period
642.16 mins
BSTAR
0.0002985
Loading maneuver chart data...
Computing Atmospheric mass density...
Loading historical data...
Loading historical data...
Loading historical data...
Loading historical data...
Loading historical data...
Loading historical data...
Loading historical data...

Documentation

Showing up to 5 results
|